Canadian, TX

4:30 AM CDT on June 27, 2017 (GMT -0500)
Hemphill County

Weather History for KHHF - November, 2011

Change the Weather History Date:

Saturday, November 19, 2011

  Actual Average (KPPA) Record (KPPA)
Temperature  
Mean Temperature 58 °F -  
Max Temperature 75 °F 58 °F 75 °F (1976)
Min Temperature 42 °F 33 °F 19 °F (1969)
Degree Days  
Heating Degree Days 6    
Growing Degree Days 8 (Base 50)    
Moisture  
Dew Point 29 °F    
Average Humidity 36    
Maximum Humidity 66    
Minimum Humidity 11    
Precipitation  
Precipitation 0.00 in - - ()
Sea Level Pressure  
Sea Level Pressure 29.72 in    
Wind  
Wind Speed 16 mph (SW)    
Max Wind Speed 26 mph    
Max Gust Speed 34 mph    
Visibility 10 miles    
Events      
Averages and records for this station are not official NWS values.
T = Trace of Precipitation, MM = Missing Value Source: NWS Daily Summary

Daily Weather History Graph

Daily Weather History Graph

Search for Another Location

Airport or City:

Trip Planner

Search our weather history database for the weather conditions in past years. The results will help you decide how hot, cold, wet, or windy it might be!

Date:

Astronomy

Nov. 19, 2011 Rise Set
Actual Time 7:21 AM CST 5:31 PM CST
Civil Twilight 6:54 AM CST 5:59 PM CST
Nautical Twilight 6:23 AM CST 6:30 PM CST
Astronomical Twilight 5:52 AM CST 7:00 PM CST
Moon 12:56 AM CST (11/19) 1:40 PM CST (11/19)
Length of Visible Light 11h 05m
Length of Day
10h 10m
Last Quarter, 38% of the Moon is Illuminated
Nov 19
Last Quarter
Nov 25
New
Dec 2
First Quarter
Dec 10
Full
Dec 17
Last Quarter

Hourly Weather History & Observations

Time (CST) Temp. Windchill Dew Point Humidity Pressure Visibility Wind Dir Wind Speed Gust Speed Precip Events Conditions
12:15 AM 55.4 °F - 42.8 °F 63% 29.61 in 10.0 mi SSW 21.9 mph 25.3 mph N/A   Clear
12:35 AM 55.4 °F - 42.8 °F 63% 29.60 in 10.0 mi SSW 26.5 mph 34.5 mph N/A   Clear
12:55 AM 55.4 °F - 41.0 °F 58% 29.60 in 10.0 mi SSW 24.2 mph 29.9 mph N/A   Clear
1:15 AM 55.4 °F - 41.0 °F 58% 29.61 in 10.0 mi SSW 23.0 mph 32.2 mph N/A   Clear
1:55 AM 55.4 °F - 35.6 °F 47% 29.60 in 10.0 mi SSW 20.7 mph 28.8 mph N/A   Clear
2:15 AM 55.4 °F - 33.8 °F 44% 29.60 in 10.0 mi SW 15.0 mph - N/A   Clear
2:35 AM 53.6 °F - 32.0 °F 44% 29.60 in 10.0 mi SW 15.0 mph 20.7 mph N/A   Clear
2:55 AM 53.6 °F - 32.0 °F 44% 29.60 in 10.0 mi SW 12.7 mph - N/A   Clear
3:15 AM 55.4 °F - 28.4 °F 36% 29.60 in 10.0 mi SW 13.8 mph 24.2 mph N/A   Clear
3:35 AM 53.6 °F - 28.4 °F 38% 29.60 in 10.0 mi SW 12.7 mph 23.0 mph N/A   Clear
3:55 AM 53.6 °F - 28.4 °F 38% 29.59 in 10.0 mi SSW 19.6 mph 24.2 mph N/A   Clear
4:15 AM 53.6 °F - 26.6 °F 35% 29.59 in 10.0 mi SW 17.3 mph - N/A   Clear
4:35 AM 55.4 °F - 26.6 °F 33% 29.59 in 10.0 mi SW 17.3 mph 20.7 mph N/A   Clear
5:15 AM 57.2 °F - 26.6 °F 31% 29.61 in 10.0 mi SW 15.0 mph 24.2 mph N/A   Clear
5:35 AM 55.4 °F - 26.6 °F 33% 29.62 in 10.0 mi SW 16.1 mph 21.9 mph N/A   Clear
5:55 AM 55.4 °F - 26.6 °F 33% 29.62 in 10.0 mi SW 16.1 mph - N/A   Clear
6:15 AM 55.4 °F - 26.6 °F 33% 29.63 in 10.0 mi SW 13.8 mph - N/A   Clear
6:35 AM 55.4 °F - 26.6 °F 33% 29.63 in 10.0 mi SW 16.1 mph 23.0 mph N/A   Clear
6:55 AM 57.2 °F - 26.6 °F 31% 29.63 in 10.0 mi SW 16.1 mph 20.7 mph N/A   Clear
7:15 AM 55.4 °F - 26.6 °F 33% 29.65 in 10.0 mi SW 13.8 mph - N/A   Clear
7:35 AM 55.4 °F - 26.6 °F 33% 29.65 in 10.0 mi SW 12.7 mph - N/A   Clear
7:55 AM 55.4 °F - 26.6 °F 33% 29.66 in 10.0 mi SW 10.4 mph - N/A   Clear
8:15 AM 57.2 °F - 26.6 °F 31% 29.67 in 10.0 mi SSW 11.5 mph - N/A   Clear
8:35 AM 59.0 °F - 26.6 °F 29% 29.68 in 10.0 mi SW 11.5 mph 16.1 mph N/A   Clear
8:55 AM 60.8 °F - 28.4 °F 29% 29.68 in 10.0 mi SW 15.0 mph 19.6 mph N/A   Clear
9:15 AM 55.4 °F - 28.4 °F 36% 29.70 in 10.0 mi SSW 11.5 mph - N/A   Clear
9:35 AM 57.2 °F - 28.4 °F 33% 29.70 in 10.0 mi SSW 9.2 mph - N/A   Clear
9:55 AM 59.0 °F - 28.4 °F 31% 29.71 in 10.0 mi SW 10.4 mph - N/A   Clear
10:15 AM 60.8 °F - 28.4 °F 29% 29.72 in 10.0 mi SW 13.8 mph 17.3 mph N/A   Clear
10:35 AM 62.6 °F - 28.4 °F 27% 29.72 in 10.0 mi SSW 10.4 mph - N/A   Clear
10:55 AM 62.6 °F - 30.2 °F 30% 29.74 in 10.0 mi SSW 5.8 mph - N/A   Clear
11:15 AM 64.4 °F - 30.2 °F 28% 29.74 in 10.0 mi South 11.5 mph - N/A   Clear
11:35 AM 68.0 °F - 26.6 °F 21% 29.73 in 10.0 mi WSW 17.3 mph - N/A   Clear
11:55 AM 69.8 °F - 24.8 °F 18% 29.73 in 10.0 mi WSW 16.1 mph 20.7 mph N/A   Clear
12:15 PM 71.6 °F - 23.0 °F 16% 29.73 in 10.0 mi WSW 16.1 mph 23.0 mph N/A   Clear
12:35 PM 73.4 °F - 21.2 °F 14% 29.72 in 10.0 mi West 18.4 mph 23.0 mph N/A   Clear
12:55 PM 73.4 °F - 23.0 °F 15% 29.72 in 10.0 mi West 15.0 mph - N/A   Clear
1:15 PM 73.4 °F - 21.2 °F 14% 29.72 in 10.0 mi West 12.7 mph - N/A   Clear
1:35 PM 73.4 °F - 21.2 °F 14% 29.72 in 10.0 mi West 10.4 mph 16.1 mph N/A   Clear
1:55 PM 75.2 °F - 19.4 °F 12% 29.72 in 10.0 mi WNW 11.5 mph - N/A   Clear
2:15 PM 75.2 °F - 17.6 °F 11% 29.72 in 10.0 mi West 9.2 mph - N/A   Clear
2:35 PM 75.2 °F - 17.6 °F 11% 29.72 in 10.0 mi West 9.2 mph - N/A   Clear
3:15 PM 64.4 °F - 26.6 °F 24% 29.74 in 10.0 mi NNE 15.0 mph 21.9 mph N/A   Clear
3:35 PM 62.6 °F - 26.6 °F 26% 29.75 in 10.0 mi NE 16.1 mph 21.9 mph N/A   Clear
3:55 PM 60.8 °F - 28.4 °F 29% 29.77 in 10.0 mi NE 10.4 mph - N/A   Clear
4:15 PM 60.8 °F - 28.4 °F 29% 29.80 in 10.0 mi NE 13.8 mph 21.9 mph N/A   Clear
4:35 PM 57.2 °F - 28.4 °F 33% 29.81 in 10.0 mi NE 15.0 mph - N/A   Clear
4:55 PM 55.4 °F - 30.2 °F 38% 29.82 in 10.0 mi NE 11.5 mph - N/A   Clear
5:15 PM 53.6 °F - 30.2 °F 41% 29.83 in 10.0 mi NE 12.7 mph 18.4 mph N/A   Clear
5:55 PM 51.8 °F - 32.0 °F 47% 29.85 in 10.0 mi NE 9.2 mph - N/A   Clear
6:15 PM 50.0 °F - 32.0 °F 50% 29.85 in 10.0 mi ENE 10.4 mph - N/A   Clear
6:35 PM 50.0 °F - 32.0 °F 50% 29.88 in 10.0 mi ENE 13.8 mph 18.4 mph N/A   Clear
6:55 PM 46.4 °F 41.1 °F 32.0 °F 57% 29.89 in 10.0 mi NE 11.5 mph - N/A   Clear
7:15 PM 46.4 °F 40.7 °F 32.0 °F 57% 29.90 in 10.0 mi NE 12.7 mph 18.4 mph N/A   Clear
7:35 PM 44.6 °F 38.8 °F 32.0 °F 61% 29.91 in 10.0 mi ENE 11.5 mph 17.3 mph N/A   Clear
7:55 PM 44.6 °F 38.8 °F 32.0 °F 61% 29.92 in 10.0 mi ENE 11.5 mph - N/A   Clear
8:15 PM 44.6 °F 38.4 °F 32.0 °F 61% 29.94 in 10.0 mi NE 12.7 mph 16.1 mph N/A   Clear
8:35 PM 42.8 °F 37.0 °F 32.0 °F 66% 29.95 in 10.0 mi ENE 10.4 mph 19.6 mph N/A   Clear
8:55 PM 42.8 °F 37.0 °F 32.0 °F 66% 29.95 in 10.0 mi NE 10.4 mph - N/A   Clear
9:15 PM 41.0 °F 34.7 °F 32.0 °F 70% 29.95 in 10.0 mi ENE 10.4 mph - N/A   Clear
9:35 PM 41.0 °F 35.2 °F 32.0 °F 70% 29.97 in 10.0 mi NE 9.2 mph - N/A   Clear
9:55 PM 41.0 °F 34.7 °F 32.0 °F 70% 29.98 in 10.0 mi NE 10.4 mph - N/A   Clear
10:15 PM 41.0 °F 34.3 °F 32.0 °F 70% 29.99 in 10.0 mi NE 11.5 mph - N/A   Clear
10:35 PM 39.2 °F 33.0 °F 32.0 °F 75% 29.99 in 10.0 mi NE 9.2 mph - N/A   Clear
10:55 PM 39.2 °F 32.5 °F 32.0 °F 75% 30.00 in 10.0 mi NNE 10.4 mph - N/A   Clear
11:15 PM 37.4 °F 28.5 °F 30.2 °F 75% 30.01 in 10.0 mi NE 15.0 mph - N/A   Clear
11:35 PM 37.4 °F 29.3 °F 30.2 °F 75% 30.02 in 10.0 mi NE 12.7 mph - N/A   Clear
11:55 PM 37.4 °F 30.8 °F 30.2 °F 75% 30.02 in 10.0 mi NE 9.2 mph - N/A   Clear